Christmas Island, Christmas Island

11:05 AM CXT on December 03, 2016 (GMT +0700)
Christmas Island

Weather History for YPXM - December, 2012

Change the Weather History Date:

Monday, December 3, 2012

  Actual Average Record
Temperature  
Mean Temperature 78 °F -  
Max Temperature 82 °F 78 °F 83 °F (2013)
Min Temperature 75 °F 71 °F 69 °F (2000)
Cooling Degree Days 14    
Growing Degree Days 28 (Base 50)    
Moisture  
Dew Point 72 °F    
Average Humidity 82    
Maximum Humidity 90    
Minimum Humidity 71    
Precipitation  
Precipitation 0.01 in - - ()
Sea Level Pressure  
Sea Level Pressure 29.88 in    
Wind  
Wind Speed 7 mph ()    
Max Wind Speed 10 mph    
Max Gust Speed -    
Averages and records for this station are not official NWS values.
T = Trace of Precipitation, MM = Missing Value Source: Averaged Metar Reports

Daily Weather History Graph

Daily Weather History Graph

Search for Another Location

Airport or City:

Trip Planner

Search our weather history database for the weather conditions in past years. The results will help you decide how hot, cold, wet, or windy it might be!

Date:

Astronomy

Dec. 03, 2012 Rise Set
Actual Time 5:26 AM CXT 6:08 PM CXT
Civil Twilight 5:03 AM CXT 6:31 PM CXT
Nautical Twilight 4:36 AM CXT 6:57 PM CXT
Astronomical Twilight 4:09 AM CXT 7:25 PM CXT
Moon 9:47 PM CXT 9:00 AM CXT
Length of Visible Light 13h 27m
Length of Day
12h 42m
Waning Gibbous, 82% of the Moon is Illuminated
Dec 3
Waning Gibbous
Dec 6
Last Quarter
Dec 13
New
Dec 20
First Quarter
Dec 28
Full

Hourly Weather History & Observations

Time (CXT) Temp. Heat Index Dew Point Humidity Pressure Visibility Wind Dir Wind Speed Gust Speed Precip Events Conditions
12:00 AM 76 °F - 72 °F 85% 29.89 in - SSE 6.9 mph - -  
12:00 AM 77.0 °F - 71.6 °F 83% 29.92 in - SSE 6.9 mph - N/A   Unknown
1:00 AM 76 °F - 71 °F 82% 29.87 in - SSE 8.1 mph - -  
1:00 AM 75.2 °F - 71.6 °F 89% 29.92 in - SSE 8.1 mph - N/A   Unknown
2:00 AM 75.2 °F - 71.6 °F 89% 29.89 in - SSE 6.9 mph - N/A   Unknown
3:00 AM 76 °F - 72 °F 82% 29.84 in - SSE 6.9 mph - -  
4:00 AM 76 °F - 72 °F 82% 29.84 in - SSE 6.9 mph - -  
6:00 AM 75 °F - 73 °F 90% 29.85 in - SSE 8.1 mph - -  
7:00 AM 76 °F - 72 °F 83% 29.87 in - SSE 8.1 mph - -  
9:00 AM 78 °F - 72 °F 75% 29.89 in - SSE 8.1 mph - -  
1:00 PM 81 °F - 73 °F 71% 29.85 in - SSE 9.2 mph - -  
1:00 PM 80.6 °F 85.4 °F 73.4 °F 79% 29.89 in - SSE 9.2 mph - N/A   Unknown
2:00 PM 80.6 °F 85.4 °F 73.4 °F 79% 29.89 in - SSE 10.4 mph - N/A   Unknown
4:00 PM 79 °F - 72 °F 74% 29.82 in - SSE 8.1 mph - -  
4:00 PM 78.8 °F - 71.6 °F 78% 29.86 in - SSE 8.1 mph - N/A   Unknown
6:00 PM 77 °F - 72 °F 79% 29.83 in - SE 6.9 mph - -  
6:00 PM 77.0 °F - 71.6 °F 83% 29.86 in - SE 6.9 mph - N/A   Unknown
7:00 PM 77.0 °F - 71.6 °F 83% 29.89 in - SE 8.1 mph - N/A   Unknown
8:00 PM 77.0 °F - 73.4 °F 89% 29.89 in - SE 9.2 mph - N/A   Unknown
9:00 PM 76 °F - 72 °F 85% 29.87 in - SE 8.1 mph - -  
9:00 PM 77.0 °F - 71.6 °F 83% 29.92 in - SE 8.1 mph - N/A   Unknown
10:00 PM 76 °F - 72 °F 84% 29.88 in - ESE 8.1 mph - -  
10:00 PM 77.0 °F - 71.6 °F 83% 29.92 in - ESE 8.1 mph - N/A   Unknown
11:00 PM 75.2 °F - 71.6 °F 89% 29.92 in - SSE 4.6 mph - N/A   Unknown